Simultaneous Nadir Overpasses (SNOs) Predictions

Prediction of SNOs between LANDSAT-8 and METOP-A Satellite Orbit:

Table of predicted SNOs for the next 14.0 days since TLE Epoch: 12/2/2017
Index Date (LANDSAT-8) Time (LANDSAT-8) Lat,Lon (LANDSAT-8) SZA (LANDSAT-8 ) Date (METOP-A) Time (METOP-A) Lat,Lon (METOP-A) SZA (METOP-A ) Distance(km) Time Diff (sec)
1 12/03/2017 16:29:09 -81.27, 154.91 74.18 12/03/2017 16:28:54 -81.27, 155.03 74.17 2.21 15
2 12/03/2017 17:18:34 81.30, -36.97 105.90 12/03/2017 17:19:33 81.29, -37.09 105.91 2.17 59
3 12/06/2017 12:03:23 -81.27,-138.56 73.84 12/06/2017 12:03:11 -81.28,-138.45 73.83 1.91 12
4 12/06/2017 12:52:49 81.28, 29.15 106.18 12/06/2017 12:53:51 81.28, 29.00 106.19 2.57 62
5 12/09/2017 07:37:38 -81.28, -72.07 73.57 12/09/2017 07:37:29 -81.28, -71.95 73.56 2.11 9
6 12/09/2017 08:27:04 81.28, 95.61 106.45 12/09/2017 08:28:09 81.28, 95.47 106.46 2.50 65
7 12/12/2017 03:11:53 -81.28, -5.64 73.36 12/12/2017 03:11:47 -81.28, -5.47 73.35 2.79 6
8 12/12/2017 04:01:18 81.30, 162.40 106.70 12/12/2017 04:02:26 81.29, 162.30 106.71 1.98 68
9 12/14/2017 22:46:07 -81.27, 60.75 73.23 12/14/2017 22:46:05 -81.27, 60.59 73.25 2.66 2




NCC Satellite Simultaneous Nadir Overpasses (SNOs) Prediction Service
